UZB633 UZTT-ULLI

Flight info

Callsign UZB633
Flight time N/A
Altitude 34000
Route DODUR1B DODUR L163 RUGUS/K0828F360 L163 SIVKO M166 URL M161 DENUD T784 ROKUR P164 PINOK N50 GENPA GENPA1B
Aircraft A320/M-SDE3FGHIRWY/LB1

Departure

Time 2026-05-06 10:32
Airport Tashkent International Airport (UZTT)

Arrival

Time N/A
Airport Pulkovo Airport (ULLI)
Time Latitude Longitude Altitude Speed Heading
2026-05-06 10:03 41.26190 69.26884 1407 ft 0 kts 356°
2026-05-06 10:23 41.26178 69.26885 1416 ft 4 kts 357°
2026-05-06 10:23 41.26151 69.26886 1411 ft 4 kts
2026-05-06 10:24 41.26124 69.26884 1411 ft 4 kts
2026-05-06 10:24 41.26097 69.26881 1409 ft 4 kts
2026-05-06 10:24 41.26070 69.26874 1412 ft 4 kts 15°
2026-05-06 10:24 41.26045 69.26862 1409 ft 4 kts 36°
2026-05-06 10:25 41.26033 69.26847 1409 ft 0 kts 71°
2026-05-06 10:27 41.26034 69.26848 1409 ft 2 kts 64°
2026-05-06 10:27 41.26054 69.26902 1409 ft 11 kts 64°
2026-05-06 10:27 41.26097 69.27037 1411 ft 20 kts 67°
2026-05-06 10:27 41.26117 69.27178 1410 ft 11 kts 135°
2026-05-06 10:28 41.26071 69.27240 1411 ft 8 kts 119°
2026-05-06 10:28 41.26069 69.27306 1409 ft 6 kts 82°
2026-05-06 10:28 41.26083 69.27416 1413 ft 22 kts 81°
2026-05-06 10:28 41.26115 69.27697 1407 ft 36 kts 81°
2026-05-06 10:29 41.26151 69.28024 1410 ft 35 kts 83°
2026-05-06 10:29 41.26185 69.28346 1409 ft 35 kts 83°
2026-05-06 10:29 41.26192 69.28663 1409 ft 34 kts 94°
2026-05-06 10:29 41.26189 69.28973 1406 ft 33 kts 88°
2026-05-06 10:30 41.26202 69.29279 1406 ft 33 kts 86°
2026-05-06 10:30 41.26212 69.29581 1406 ft 32 kts 87°
2026-05-06 10:30 41.26223 69.29879 1406 ft 32 kts 87°
2026-05-06 10:30 41.26161 69.30049 1412 ft 20 kts 140°
2026-05-06 10:31 41.26091 69.30071 1408 ft 15 kts 212°
2026-05-06 10:31 41.26069 69.30002 1404 ft 6 kts 266°
2026-05-06 10:31 41.26018 69.29610 1410 ft 82 kts 261°
2026-05-06 10:31 41.25898 69.28541 1402 ft 149 kts 262°
2026-05-06 10:32 41.25730 69.26950 1506 ft 193 kts 263°
2026-05-06 10:32 41.25508 69.25067 1943 ft 214 kts 261°
2026-05-06 10:32 41.25269 69.23075 2684 ft 227 kts 261°
2026-05-06 10:32 41.25012 69.20906 3030 ft 249 kts 261°
2026-05-06 10:33 41.24733 69.18549 3505 ft 263 kts 261°
2026-05-06 10:33 41.24445 69.16114 4211 ft 268 kts 261°
2026-05-06 10:33 41.24158 69.13655 5010 ft 271 kts 261°
2026-05-06 10:33 41.24037 69.11154 5760 ft 275 kts 280°
2026-05-06 10:34 41.24765 69.08802 6502 ft 278 kts 299°
2026-05-06 10:34 41.25764 69.06590 7270 ft 280 kts 301°
2026-05-06 10:34 41.26819 69.04397 8039 ft 282 kts 302°
2026-05-06 10:34 41.27893 69.02196 8807 ft 285 kts 302°
2026-05-06 10:35 41.28970 68.99972 9582 ft 287 kts 301°
2026-05-06 10:35 41.30046 68.97721 10215 ft 294 kts 301°
2026-05-06 10:35 41.31175 68.95327 10382 ft 317 kts 301°
2026-05-06 10:35 41.32382 68.92754 10653 ft 335 kts 301°
2026-05-06 10:36 41.33626 68.90093 11232 ft 341 kts 301°
2026-05-06 10:36 41.34884 68.87398 11892 ft 345 kts 301°
2026-05-06 10:36 41.36158 68.84664 12564 ft 349 kts 301°
2026-05-06 10:36 41.37465 68.81929 13233 ft 352 kts 305°
2026-05-06 10:37 41.39100 68.79469 13870 ft 357 kts 317°
2026-05-06 10:37 41.41089 68.77472 14453 ft 360 kts 325°
2026-05-06 10:37 41.43173 68.75589 15039 ft 363 kts 325°
2026-05-06 10:37 41.45266 68.73688 15621 ft 365 kts 324°
2026-05-06 10:38 41.47370 68.71766 16209 ft 367 kts 324°
2026-05-06 10:38 41.49486 68.69824 16787 ft 370 kts 324°
2026-05-06 10:38 41.51590 68.67896 17341 ft 373 kts 324°
2026-05-06 10:38 41.53735 68.65928 17909 ft 376 kts 324°
2026-05-06 10:39 41.55925 68.63917 18451 ft 378 kts 324°
2026-05-06 10:39 41.58073 68.61946 18940 ft 381 kts 324°
2026-05-06 10:39 41.60296 68.59907 19441 ft 383 kts 324°
2026-05-06 10:39 41.62465 68.57911 19915 ft 386 kts 324°
2026-05-06 10:40 41.64714 68.55837 20424 ft 388 kts 324°
2026-05-06 10:40 41.66940 68.53779 20912 ft 391 kts 324°
2026-05-06 10:40 41.69155 68.51734 21395 ft 393 kts 324°
2026-05-06 10:40 41.71413 68.49654 21868 ft 396 kts 324°
2026-05-06 10:41 41.73694 68.47555 22336 ft 398 kts 324°
2026-05-06 10:41 41.75980 68.45445 22793 ft 401 kts 324°
2026-05-06 10:41 41.78283 68.43314 23243 ft 403 kts 324°
2026-05-06 10:41 41.80596 68.41172 23666 ft 406 kts 324°
2026-05-06 10:42 41.82926 68.39015 24036 ft 408 kts 324°
2026-05-06 10:42 41.85266 68.36847 24412 ft 410 kts 324°
2026-05-06 10:42 41.87609 68.34672 24781 ft 411 kts 324°
2026-05-06 10:42 41.89969 68.32478 25131 ft 413 kts 324°
2026-05-06 10:43 41.92337 68.30273 25484 ft 415 kts 324°
2026-05-06 10:43 41.94717 68.28053 25821 ft 417 kts 323°
2026-05-06 10:43 41.97106 68.25823 26155 ft 419 kts 323°
2026-05-06 10:44 42.01909 68.21341 26822 ft 422 kts 323°
2026-05-06 10:44 42.04160 68.18808 27136 ft 422 kts 314°
2026-05-06 10:44 42.06174 68.15921 27451 ft 424 kts 311°
2026-05-06 10:44 42.08185 68.13002 27772 ft 426 kts 311°
2026-05-06 10:45 42.10202 68.10084 28080 ft 427 kts 312°
2026-05-06 10:45 42.12232 68.07147 28387 ft 429 kts 312°
2026-05-06 10:45 42.14267 68.04201 28682 ft 431 kts 312°
2026-05-06 10:45 42.16314 68.01241 28969 ft 432 kts 312°
2026-05-06 10:46 42.18368 67.98260 29252 ft 434 kts 311°
2026-05-06 10:46 42.20421 67.95274 29519 ft 435 kts 311°
2026-05-06 10:46 42.22481 67.92276 29780 ft 436 kts 311°
2026-05-06 10:46 42.24545 67.89271 30041 ft 438 kts 311°
2026-05-06 10:47 42.26619 67.86249 30311 ft 437 kts 311°
2026-05-06 10:47 42.28680 67.83239 30621 ft 436 kts 311°
2026-05-06 10:47 42.30732 67.80239 30916 ft 435 kts 311°
2026-05-06 10:47 42.32784 67.77241 31213 ft 434 kts 311°
2026-05-06 10:48 42.34834 67.74245 31512 ft 433 kts 311°
2026-05-06 10:48 42.36876 67.71257 31807 ft 432 kts 311°
2026-05-06 10:48 42.38905 67.68280 32103 ft 431 kts 311°
2026-05-06 10:48 42.40939 67.65294 32391 ft 430 kts 311°
2026-05-06 10:49 42.42959 67.62325 32680 ft 429 kts 311°
2026-05-06 10:49 42.44979 67.59353 32961 ft 428 kts 311°
2026-05-06 10:49 42.46995 67.56386 33246 ft 427 kts 311°
2026-05-06 10:49 42.49004 67.53427 33528 ft 426 kts 311°
2026-05-06 10:50 42.51012 67.50468 33805 ft 426 kts 311°
2026-05-06 10:50 42.53011 67.47514 33964 ft 424 kts 311°
2026-05-06 10:50 42.54992 67.44576 33984 ft 421 kts 311°
2026-05-06 10:51 42.58932 67.38739 33981 ft 419 kts 311°
2026-05-06 10:51 42.62868 67.32904 33986 ft 419 kts 311°
2026-05-06 10:52 42.66802 67.27067 33985 ft 419 kts 311°
2026-05-06 10:52 42.70736 67.21226 33975 ft 419 kts 311°
2026-05-06 10:53 42.74663 67.15377 33978 ft 418 kts 311°
2026-05-06 10:53 42.78581 67.09517 33987 ft 418 kts 310°
2026-05-06 10:54 42.82492 67.03662 33982 ft 418 kts 310°
2026-05-06 10:54 42.86405 66.97803 33991 ft 418 kts 310°
2026-05-06 10:55 42.90302 66.91947 33967 ft 423 kts 310°
2026-05-06 10:55 42.94313 66.85891 33984 ft 432 kts 310°
2026-05-06 10:56 42.98370 66.79749 33970 ft 438 kts 310°
2026-05-06 10:56 43.02451 66.73570 33974 ft 442 kts 310°
2026-05-06 10:57 43.06614 66.67260 33970 ft 446 kts 310°
2026-05-06 10:57 43.10748 66.60979 33968 ft 448 kts 310°
2026-05-06 10:58 43.14918 66.54615 33962 ft 449 kts 310°
2026-05-06 10:58 43.19095 66.48230 33961 ft 450 kts 310°
2026-05-06 10:59 43.23273 66.41833 33967 ft 451 kts 310°
2026-05-06 10:59 43.27461 66.35410 33963 ft 451 kts 310°
2026-05-06 11:00 43.31645 66.28971 33972 ft 452 kts 310°
2026-05-06 11:00 43.35828 66.22524 33974 ft 452 kts 310°
2026-05-06 11:01 43.40000 66.16079 33974 ft 452 kts 310°
2026-05-06 11:01 43.44177 66.09604 33976 ft 452 kts 310°
2026-05-06 11:02 43.48345 66.03147 33976 ft 451 kts 310°
2026-05-06 11:02 43.52508 65.96671 33973 ft 451 kts 310°
2026-05-06 11:03 43.56657 65.90198 33978 ft 450 kts 309°
2026-05-06 11:03 43.60800 65.83723 33975 ft 450 kts 309°
2026-05-06 11:04 43.64940 65.77246 33974 ft 449 kts 309°
2026-05-06 11:04 43.69070 65.70766 33971 ft 449 kts 309°
2026-05-06 11:05 43.73193 65.64284 33961 ft 449 kts 309°
2026-05-06 11:05 43.77300 65.57808 33953 ft 448 kts 309°
2026-05-06 11:06 43.81406 65.51328 33948 ft 448 kts 309°
2026-05-06 11:06 43.85507 65.44844 33949 ft 447 kts 309°
2026-05-06 11:07 43.89600 65.38352 33947 ft 447 kts 309°
2026-05-06 11:07 43.93691 65.31847 33951 ft 447 kts 309°
2026-05-06 11:08 43.97775 65.25330 33952 ft 447 kts 309°
2026-05-06 11:08 44.01855 65.18803 33956 ft 447 kts 309°
2026-05-06 11:09 44.05936 65.12266 33958 ft 447 kts 309°
2026-05-06 11:09 44.10011 65.05734 33958 ft 447 kts 309°
2026-05-06 11:10 44.14089 64.99180 33952 ft 447 kts 309°
2026-05-06 11:10 44.16122 64.95900 33734 ft 447 kts 307°
2026-05-06 11:10 44.18148 64.92628 33935 ft 445 kts 307°
2026-05-06 11:11 44.22214 64.86046 33943 ft 450 kts 307°
2026-05-06 11:11 44.26308 64.79391 33937 ft 454 kts 307°
2026-05-06 11:12 44.30427 64.72681 33944 ft 456 kts 307°
2026-05-06 11:12 44.33872 64.67070 33940 ft 459 kts 307°
2026-05-06 11:13 44.38057 64.60245 33940 ft 461 kts 307°
2026-05-06 11:13 44.42205 64.53459 33939 ft 463 kts 306°
2026-05-06 11:14 44.46405 64.46586 33922 ft 465 kts 306°
2026-05-06 11:14 44.50623 64.39687 33924 ft 467 kts 306°
2026-05-06 11:15 44.54834 64.32751 33920 ft 468 kts 306°
2026-05-06 11:15 44.59052 64.25779 33920 ft 469 kts 306°
2026-05-06 11:16 44.63277 64.18769 33921 ft 470 kts 305°
2026-05-06 11:16 44.67507 64.11749 33919 ft 471 kts 305°
2026-05-06 11:17 44.71748 64.04701 33918 ft 472 kts 305°
2026-05-06 11:17 44.75988 63.97632 33925 ft 473 kts 305°
2026-05-06 11:18 44.80224 63.90538 33921 ft 473 kts 304°
2026-05-06 11:18 44.84459 63.83434 33923 ft 474 kts 304°
2026-05-06 11:19 44.88699 63.76314 33924 ft 474 kts 304°
2026-05-06 11:19 44.92937 63.69183 33923 ft 474 kts 304°
2026-05-06 11:20 44.97168 63.62035 33930 ft 474 kts 304°
2026-05-06 11:20 45.01394 63.54888 33934 ft 474 kts 304°
2026-05-06 11:21 45.05609 63.47731 33939 ft 473 kts 304°
2026-05-06 11:21 45.09807 63.40581 33942 ft 473 kts 304°
2026-05-06 11:22 45.14001 63.33414 33944 ft 472 kts 304°
2026-05-06 11:22 45.18187 63.26253 33942 ft 471 kts 304°
2026-05-06 11:23 45.22370 63.19091 33946 ft 471 kts 304°
2026-05-06 11:23 45.26529 63.11927 33939 ft 470 kts 304°
2026-05-06 11:24 45.30686 63.04760 33940 ft 470 kts 304°
2026-05-06 11:24 45.34835 62.97594 33935 ft 469 kts 304°
2026-05-06 11:25 45.38972 62.90422 33934 ft 469 kts 304°
2026-05-06 11:25 45.43105 62.83239 33946 ft 469 kts 304°
2026-05-06 11:26 45.47228 62.76053 33934 ft 468 kts 304°
2026-05-06 11:26 45.51344 62.68860 33940 ft 468 kts 304°
2026-05-06 11:27 45.55449 62.61665 33933 ft 467 kts 304°
2026-05-06 11:27 45.59543 62.54461 33930 ft 467 kts 304°
2026-05-06 11:28 45.63642 62.47261 33924 ft 467 kts 304°
2026-05-06 11:28 45.67735 62.40066 33926 ft 466 kts 304°
2026-05-06 11:29 45.71816 62.32864 33922 ft 466 kts 303°
2026-05-06 11:29 45.75877 62.25651 33923 ft 465 kts 303°
2026-05-06 11:30 45.79933 62.18426 33927 ft 465 kts 303°
2026-05-06 11:30 45.84087 62.11311 33926 ft 469 kts 308°
2026-05-06 11:31 45.88650 62.04614 33925 ft 469 kts 308°
2026-05-06 11:31 45.93207 61.97905 33928 ft 469 kts 308°
2026-05-06 11:32 45.97724 61.91237 33932 ft 469 kts 308°
2026-05-06 11:32 46.02268 61.84516 33934 ft 469 kts 308°
2026-05-06 11:33 46.06805 61.77785 33935 ft 468 kts 308°
2026-05-06 11:33 46.11332 61.71040 33932 ft 468 kts 308°
2026-05-06 11:34 46.15854 61.64280 33938 ft 468 kts 308°
2026-05-06 11:34 46.20360 61.57520 33943 ft 467 kts 308°
2026-05-06 11:35 46.24860 61.50756 33941 ft 467 kts 308°
2026-05-06 11:35 46.29357 61.43984 33943 ft 467 kts 308°
2026-05-06 11:36 46.33849 61.37196 33942 ft 467 kts 308°
2026-05-06 11:36 46.38330 61.30407 33938 ft 466 kts 308°
2026-05-06 11:37 46.42808 61.23615 33937 ft 466 kts 308°
2026-05-06 11:37 46.47278 61.16807 33933 ft 466 kts 308°
2026-05-06 11:38 46.51751 61.09974 33934 ft 466 kts 308°
2026-05-06 11:38 46.56235 61.03115 33936 ft 466 kts 308°
2026-05-06 11:39 46.60681 60.96304 33925 ft 467 kts 308°
2026-05-06 11:39 46.65173 60.89397 33928 ft 467 kts 308°
2026-05-06 11:40 46.69608 60.82546 33909 ft 468 kts 307°
2026-05-06 11:40 46.74079 60.75632 33910 ft 469 kts 307°
2026-05-06 11:41 46.78547 60.68704 33911 ft 470 kts 307°
2026-05-06 11:41 46.83023 60.61743 33913 ft 470 kts 307°
2026-05-06 11:42 46.87495 60.54761 33914 ft 471 kts 307°
2026-05-06 11:42 46.91966 60.47774 33914 ft 471 kts 307°
2026-05-06 11:43 46.96451 60.40766 33917 ft 471 kts 307°
2026-05-06 11:43 47.00921 60.33754 33917 ft 471 kts 307°
2026-05-06 11:44 47.07613 60.23207 33921 ft 470 kts 306°
2026-05-06 11:44 47.12058 60.16173 33920 ft 470 kts 306°
2026-05-06 11:45 47.16502 60.09128 33921 ft 470 kts 306°
2026-05-06 11:45 47.20938 60.02072 33918 ft 470 kts 306°
2026-05-06 11:46 47.25370 59.95009 33915 ft 469 kts 306°
2026-05-06 11:46 47.29798 59.87934 33914 ft 469 kts 306°
2026-05-06 11:47 47.34220 59.80867 33923 ft 469 kts 306°
2026-05-06 11:47 47.38625 59.73800 33925 ft 468 kts 305°
2026-05-06 11:48 47.43024 59.66718 33925 ft 467 kts 305°
2026-05-06 11:48 47.47401 59.59634 33909 ft 466 kts 305°
2026-05-06 11:49 47.51768 59.52554 33906 ft 466 kts 304°
2026-05-06 11:49 47.56132 59.45464 33905 ft 465 kts 304°
2026-05-06 11:50 47.60484 59.38391 33900 ft 465 kts 304°
2026-05-06 11:50 47.64830 59.31307 33903 ft 464 kts 304°
2026-05-06 11:51 47.69162 59.24209 33905 ft 464 kts 304°
2026-05-06 11:51 47.73489 59.17109 33898 ft 463 kts 304°
2026-05-06 11:52 47.77802 59.10008 33896 ft 463 kts 304°
2026-05-06 11:52 47.82103 59.02891 33894 ft 462 kts 303°
2026-05-06 11:53 47.86399 58.95778 33890 ft 462 kts 303°
2026-05-06 11:53 47.90706 58.88651 33883 ft 462 kts 303°
2026-05-06 11:54 47.94278 58.82725 33878 ft 463 kts 303°
2026-05-06 11:54 47.98571 58.75561 33870 ft 463 kts 303°
2026-05-06 11:55 48.02859 58.68388 33868 ft 463 kts 303°
2026-05-06 11:55 48.07150 58.61192 33869 ft 464 kts 303°
2026-05-06 11:56 48.11443 58.53984 33868 ft 464 kts 302°
2026-05-06 11:56 48.15733 58.46768 33874 ft 464 kts 302°
2026-05-06 11:57 48.20015 58.39538 33878 ft 464 kts 302°
2026-05-06 11:57 48.24285 58.32292 33879 ft 464 kts 302°
2026-05-06 11:58 48.28543 58.25043 33885 ft 463 kts 302°
2026-05-06 11:58 48.32805 58.17786 33886 ft 463 kts 302°
2026-05-06 11:59 48.37059 58.10527 33878 ft 462 kts 302°
2026-05-06 11:59 48.41307 58.03258 33877 ft 462 kts 302°
2026-05-06 12:00 48.45540 57.95985 33879 ft 462 kts 302°
2026-05-06 12:00 48.49765 57.88698 33879 ft 462 kts 302°
2026-05-06 12:01 48.53987 57.81393 33872 ft 462 kts 303°
2026-05-06 12:01 48.58210 57.74083 33863 ft 462 kts 303°
2026-05-06 12:02 48.62429 57.66761 33854 ft 463 kts 303°
2026-05-06 12:02 48.66653 57.59405 33847 ft 463 kts 303°
2026-05-06 12:03 48.70874 57.52036 33845 ft 464 kts 303°
2026-05-06 12:03 48.75096 57.44633 33838 ft 465 kts 303°
2026-05-06 12:04 48.79319 57.37206 33830 ft 465 kts 303°
2026-05-06 12:04 48.83553 57.29751 33824 ft 466 kts 303°
2026-05-06 12:05 48.87790 57.22279 33825 ft 467 kts 303°
2026-05-06 12:05 48.92017 57.14775 33829 ft 468 kts 303°
2026-05-06 12:06 48.96245 57.07233 33834 ft 468 kts 303°
2026-05-06 12:06 49.00482 56.99689 33838 ft 469 kts 303°
2026-05-06 12:07 49.04723 56.92132 33840 ft 469 kts 304°
2026-05-06 12:07 49.08951 56.84579 33844 ft 469 kts 303°
2026-05-06 12:08 49.13181 56.76985 33845 ft 469 kts 304°
2026-05-06 12:08 49.17394 56.69385 33842 ft 469 kts 303°
2026-05-06 12:09 49.21598 56.61767 33841 ft 469 kts 304°
2026-05-06 12:09 49.25808 56.54143 33840 ft 469 kts 304°
2026-05-06 12:10 49.30019 56.46506 33834 ft 469 kts 304°
2026-05-06 12:10 49.34217 56.38852 33830 ft 469 kts 304°
2026-05-06 12:11 49.38415 56.31176 33824 ft 470 kts 304°
2026-05-06 12:11 49.42607 56.23476 33822 ft 470 kts 304°
2026-05-06 12:12 49.46789 56.15765 33822 ft 471 kts 304°
2026-05-06 12:12 49.50992 56.08024 33812 ft 471 kts 305°
2026-05-06 12:13 49.55194 56.00273 33813 ft 472 kts 305°
2026-05-06 12:13 49.59390 55.92485 33817 ft 473 kts 305°
2026-05-06 12:14 49.63586 55.84672 33814 ft 473 kts 305°
2026-05-06 12:14 49.67785 55.76835 33812 ft 474 kts 305°
2026-05-06 12:15 49.71984 55.68974 33819 ft 475 kts 305°
2026-05-06 12:15 49.76184 55.61084 33812 ft 476 kts 306°
2026-05-06 12:16 49.80389 55.53167 33811 ft 476 kts 306°
2026-05-06 12:16 49.84592 55.45228 33812 ft 477 kts 306°
2026-05-06 12:17 49.88411 55.37987 33813 ft 477 kts 306°
2026-05-06 12:17 49.92231 55.30717 33818 ft 478 kts 306°
2026-05-06 12:18 49.96354 55.22620 33818 ft 478 kts 304°
2026-05-06 12:18 50.00378 55.14401 33819 ft 478 kts 304°
2026-05-06 12:19 50.04390 55.06152 33821 ft 478 kts 304°
2026-05-06 12:19 50.08415 54.97914 33822 ft 479 kts 305°
2026-05-06 12:20 50.12333 54.89949 33824 ft 479 kts 305°
2026-05-06 12:20 50.16383 54.81676 33824 ft 479 kts 305°
2026-05-06 12:21 50.20406 54.73383 33824 ft 479 kts 305°
2026-05-06 12:21 50.24410 54.65084 33826 ft 479 kts 305°
2026-05-06 12:22 50.28429 54.56781 33829 ft 479 kts 306°
2026-05-06 12:22 50.32438 54.48463 33825 ft 479 kts 305°
2026-05-06 12:23 50.36434 54.40115 33825 ft 479 kts 306°
2026-05-06 12:23 50.40411 54.31756 33832 ft 479 kts 305°